Location: Aalen
(48.8330°N, 10.1000°E)
Time: 19:56:28
(UTC+02:00)

S-56A Canister/Altair - Pass Details

Date: 02 August 2021
Orbit: 632 x 2500 km, 38.9° (Epoch: 19 September)

Event Time Altitude Azimuth Distance (km) Brightness Sun altitude
Rises 16:32:35 0° 239° (WSW) 5,483 12.7 41.2°
Reaches altitude 10° 16:36:00 10° 234° (SW) 4,678 12.6 40.6°
Maximum altitude 16:49:05 52° 164° (SSE) 2,906 11.0 38.6°
Drops below altitude 10° 17:03:14 10° 95° (E) 5,040 11.3 36.4°
Sets 17:07:03 0° 91° (E) 5,923 11.6 35.8°
